Time,TemperatureF,DewpointF,PressureIn,WindDirection,WindDirectionDegrees,WindSpeedMPH,WindSpeedGustMPH,Humidity,HourlyPrecipIn,Conditions,Clouds,dailyrainin,SoftwareType,DateUTC
2013-05-08 00:01:00,50.1,41.1,30.04,South,180,8.6,9.1,71,0.00,,,0.00,WUHU216HW,2013-05-08 05:01:00,
2013-05-08 00:06:00,50.7,41.3,30.04,SSE,158,5.3,8.6,70,0.00,,,0.00,WUHU216HW,2013-05-08 05:06:00,
2013-05-08 00:11:00,50.5,40.7,30.04,SSE,158,4.1,8.6,69,0.00,,,0.00,WUHU216HW,2013-05-08 05:11:00,
2013-05-08 00:16:00,50.1,40.0,30.04,SSE,158,7.3,7.3,68,0.00,,,0.00,WUHU216HW,2013-05-08 05:16:00,
2013-05-08 00:21:00,49.8,40.0,30.03,SSE,158,3.6,7.3,69,0.00,,,0.00,WUHU216HW,2013-05-08 05:21:00,
2013-05-08 00:26:00,50.1,40.4,30.04,SSE,158,3.0,7.3,69,0.00,,,0.00,WUHU216HW,2013-05-08 05:26:00,
2013-05-08 00:31:00,50.5,40.7,30.03,SSE,158,2.5,3.3,69,0.00,,,0.00,WUHU216HW,2013-05-08 05:31:00,
2013-05-08 00:36:00,50.9,41.1,30.03,SSE,158,0.0,3.0,69,0.00,,,0.00,WUHU216HW,2013-05-08 05:36:00,
2013-05-08 00:41:00,51.4,41.4,30.03,SSE,158,0.0,2.5,69,0.00,,,0.00,WUHU216HW,2013-05-08 05:41:00,
2013-05-08 00:46:00,51.6,41.8,30.03,SSE,158,0.0,1.0,69,0.00,,,0.00,WUHU216HW,2013-05-08 05:46:00,
2013-05-08 00:51:00,51.8,42.0,30.03,SSE,158,0.0,0.0,69,0.00,,,0.00,WUHU216HW,2013-05-08 05:51:00,
2013-05-08 00:56:00,52.1,41.9,30.03,SSE,158,0.0,0.0,68,0.00,,,0.00,WUHU216HW,2013-05-08 05:56:00,
2013-05-08 01:01:00,52.3,42.0,30.03,SSE,158,0.0,0.0,68,0.00,,,0.00,WUHU216HW,2013-05-08 06:01:00,
2013-05-08 01:06:00,52.3,42.0,30.03,SSE,158,0.0,0.0,68,0.00,,,0.00,WUHU216HW,2013-05-08 06:06:00,
2013-05-08 01:11:00,52.3,42.0,30.03,SSE,158,0.0,0.0,68,0.00,,,0.00,WUHU216HW,2013-05-08 06:11:00,
2013-05-08 01:16:00,52.3,42.0,30.03,SSE,158,0.0,0.0,68,0.00,,,0.00,WUHU216HW,2013-05-08 06:16:00,
2013-05-08 01:21:00,52.3,42.0,30.04,SSE,158,0.0,0.0,68,0.00,,,0.00,WUHU216HW,2013-05-08 06:21:00,
2013-05-08 01:26:00,52.3,42.0,30.04,SSE,158,0.0,0.0,68,0.00,,,0.00,WUHU216HW,2013-05-08 06:26:00,
2013-05-08 01:31:00,52.5,41.8,30.04,SSE,158,0.0,0.0,67,0.00,,,0.00,WUHU216HW,2013-05-08 06:31:00,
2013-05-08 01:36:00,52.5,41.8,30.04,SSE,158,0.0,0.0,67,0.00,,,0.00,WUHU216HW,2013-05-08 06:36:00,
2013-05-08 01:41:00,52.3,41.6,30.04,SSE,158,0.0,0.0,67,0.00,,,0.00,WUHU216HW,2013-05-08 06:41:00,
2013-05-08 01:46:00,52.5,41.8,30.03,SSE,158,0.0,0.0,67,0.00,,,0.00,WUHU216HW,2013-05-08 06:46:00,
2013-05-08 01:51:00,52.3,41.6,30.03,SSE,158,0.0,0.0,67,0.00,,,0.00,WUHU216HW,2013-05-08 06:51:00,
2013-05-08 01:56:00,53.2,42.5,30.03,SSW,197,8.3,12.5,67,0.00,,,0.00,WUHU216HW,2013-05-08 06:56:00,
2013-05-08 02:01:00,53.4,43.0,30.03,SW,225,3.6,12.5,68,0.00,,,0.00,WUHU216HW,2013-05-08 07:01:00,
2013-05-08 02:06:00,53.4,43.0,30.03,SW,225,5.3,6.4,68,0.00,,,0.00,WUHU216HW,2013-05-08 07:06:00,
2013-05-08 02:11:00,53.4,43.0,30.03,SSW,203,5.5,6.4,68,0.00,,,0.00,WUHU216HW,2013-05-08 07:11:00,
2013-05-08 02:16:00,53.2,42.9,30.04,SSW,203,0.0,6.1,68,0.00,,,0.00,WUHU216HW,2013-05-08 07:16:00,
2013-05-08 02:21:00,52.8,42.9,30.04,SSW,203,3.3,5.5,69,0.00,,,0.00,WUHU216HW,2013-05-08 07:21:00,
2013-05-08 02:26:00,52.8,42.9,30.04,SSW,203,2.5,3.3,69,0.00,,,0.00,WUHU216HW,2013-05-08 07:26:00,
2013-05-08 02:31:00,52.7,43.2,30.03,South,180,4.1,4.1,70,0.00,,,0.00,WUHU216HW,2013-05-08 07:31:00,
2013-05-08 02:36:00,52.7,43.2,30.04,South,180,1.6,4.1,70,0.00,,,0.00,WUHU216HW,2013-05-08 07:36:00,
2013-05-08 02:41:00,52.5,43.0,30.03,South,180,5.8,5.8,70,0.00,,,0.00,WUHU216HW,2013-05-08 07:41:00,
2013-05-08 02:46:00,52.3,42.9,30.03,SSE,158,5.8,5.8,70,0.00,,,0.00,WUHU216HW,2013-05-08 07:46:00,
2013-05-08 02:51:00,51.9,42.6,30.03,South,180,2.1,5.8,70,0.00,,,0.00,WUHU216HW,2013-05-08 07:51:00,
2013-05-08 02:56:00,51.8,42.7,30.03,South,180,3.9,3.9,71,0.00,,,0.00,WUHU216HW,2013-05-08 07:56:00,
2013-05-08 03:02:00,51.6,42.6,30.03,South,180,6.9,6.9,71,0.00,,,0.00,WUHU216HW,2013-05-08 08:02:00,
2013-05-08 03:07:00,51.4,42.7,30.03,South,180,4.7,7.8,72,0.00,,,0.00,WUHU216HW,2013-05-08 08:07:00,
2013-05-08 03:12:00,51.4,42.7,30.03,South,180,6.9,7.8,72,0.00,,,0.00,WUHU216HW,2013-05-08 08:12:00,
2013-05-08 03:17:00,51.6,42.9,30.02,South,180,4.4,6.9,72,0.00,,,0.00,WUHU216HW,2013-05-08 08:17:00,
2013-05-08 03:22:00,51.6,42.9,30.03,South,180,2.8,6.9,72,0.00,,,0.00,WUHU216HW,2013-05-08 08:22:00,
2013-05-08 03:27:00,51.4,43.1,30.03,South,180,1.9,5.5,73,0.00,,,0.00,WUHU216HW,2013-05-08 08:27:00,
2013-05-08 03:32:00,51.4,43.1,30.03,South,180,4.1,5.5,73,0.00,,,0.00,WUHU216HW,2013-05-08 08:32:00,
2013-05-08 03:37:00,51.0,42.4,30.03,SSE,158,2.1,5.5,72,0.00,,,0.00,WUHU216HW,2013-05-08 08:37:00,
2013-05-08 03:42:00,50.5,42.2,30.03,SSE,158,4.8,5.5,73,0.00,,,0.00,WUHU216HW,2013-05-08 08:42:00,
2013-05-08 03:47:00,50.3,42.3,30.03,South,180,6.9,8.0,74,0.00,,,0.00,WUHU216HW,2013-05-08 08:47:00,
2013-05-08 03:52:00,50.7,43.0,30.03,South,170,5.9,8.0,75,0.00,,,0.00,WUHU216HW,2013-05-08 08:52:00,
2013-05-08 03:57:00,50.7,42.7,30.03,SSE,158,0.0,6.6,74,0.00,,,0.00,WUHU216HW,2013-05-08 08:57:00,
2013-05-08 04:02:00,50.3,42.3,30.03,SSE,158,0.0,5.3,74,0.00,,,0.00,WUHU216HW,2013-05-08 09:02:00,
2013-05-08 04:07:00,50.1,42.1,30.03,SSE,158,0.0,0.0,74,0.00,,,0.00,WUHU216HW,2013-05-08 09:07:00,
2013-05-08 04:12:00,50.1,42.5,30.03,SSE,158,0.0,0.0,75,0.00,,,0.00,WUHU216HW,2013-05-08 09:12:00,
2013-05-08 04:17:00,50.1,42.5,30.03,SSE,158,0.0,0.0,75,0.00,,,0.00,WUHU216HW,2013-05-08 09:17:00,
2013-05-08 04:22:00,50.1,42.5,30.03,SSE,158,0.0,0.0,75,0.00,,,0.00,WUHU216HW,2013-05-08 09:22:00,
2013-05-08 04:27:00,50.5,42.8,30.04,SSE,158,0.0,0.0,75,0.00,,,0.00,WUHU216HW,2013-05-08 09:27:00,
2013-05-08 04:32:00,50.5,42.8,30.03,SSE,158,0.0,0.0,75,0.00,,,0.00,WUHU216HW,2013-05-08 09:32:00,
2013-05-08 04:37:00,50.5,42.5,30.03,SSE,158,0.0,0.0,74,0.00,,,0.00,WUHU216HW,2013-05-08 09:37:00,
2013-05-08 04:42:00,50.5,42.5,30.04,SSE,158,0.0,0.0,74,0.00,,,0.00,WUHU216HW,2013-05-08 09:42:00,
2013-05-08 04:47:00,50.5,42.8,30.04,SSE,158,0.0,0.0,75,0.00,,,0.00,WUHU216HW,2013-05-08 09:47:00,
2013-05-08 04:52:00,50.0,42.3,30.04,SSE,158,0.0,0.0,75,0.00,,,0.00,WUHU216HW,2013-05-08 09:52:00,
2013-05-08 04:57:00,49.8,42.5,30.03,SSE,158,0.0,0.0,76,0.00,,,0.00,WUHU216HW,2013-05-08 09:57:00,
2013-05-08 05:02:00,50.0,42.6,30.04,SSE,158,0.0,0.0,76,0.00,,,0.00,WUHU216HW,2013-05-08 10:02:00,
2013-05-08 05:07:00,49.8,42.5,30.03,SSE,158,0.0,0.0,76,0.00,,,0.00,WUHU216HW,2013-05-08 10:07:00,
2013-05-08 05:12:00,49.6,42.3,30.03,SSE,158,0.0,0.0,76,0.00,,,0.00,WUHU216HW,2013-05-08 10:12:00,
2013-05-08 05:17:00,49.2,42.3,30.04,SSE,158,0.0,0.0,77,0.00,,,0.00,WUHU216HW,2013-05-08 10:17:00,
2013-05-08 05:22:00,49.1,42.1,30.03,SSE,158,0.0,0.0,77,0.00,,,0.00,WUHU216HW,2013-05-08 10:22:00,
2013-05-08 05:26:00,49.1,42.4,30.03,SSE,158,0.0,0.0,78,0.00,,,0.00,WUHU216HW,2013-05-08 10:26:00,
2013-05-08 05:31:00,48.9,42.2,30.03,SSE,158,5.3,5.3,78,0.00,,,0.00,WUHU216HW,2013-05-08 10:31:00,
2013-05-08 05:36:00,48.7,41.7,30.03,SSE,158,0.0,5.3,77,0.00,,,0.00,WUHU216HW,2013-05-08 10:36:00,
2013-05-08 05:41:00,48.7,41.7,30.04,SSE,158,0.0,0.0,77,0.00,,,0.00,WUHU216HW,2013-05-08 10:41:00,
2013-05-08 05:46:00,48.7,41.7,30.03,SSE,158,0.0,0.0,77,0.00,,,0.00,WUHU216HW,2013-05-08 10:46:00,
2013-05-08 05:51:00,48.7,42.1,30.04,SE,135,0.0,0.0,78,0.00,,,0.00,WUHU216HW,2013-05-08 10:51:00,
2013-05-08 05:56:00,48.5,41.5,30.03,South,180,0.0,0.0,77,0.00,,,0.00,WUHU216HW,2013-05-08 10:56:00,
2013-05-08 06:01:00,48.5,41.9,30.04,SSE,158,0.0,0.0,78,0.00,,,0.00,WUHU216HW,2013-05-08 11:01:00,
2013-05-08 06:06:00,48.7,41.7,30.04,SSE,158,1.6,1.6,77,0.00,,,0.00,WUHU216HW,2013-05-08 11:06:00,
2013-05-08 06:11:00,48.2,41.2,30.04,SE,135,0.0,1.6,77,0.00,,,0.00,WUHU216HW,2013-05-08 11:11:00,
2013-05-08 06:16:00,47.8,40.9,30.04,SE,135,0.0,0.0,77,0.00,,,0.00,WUHU216HW,2013-05-08 11:16:00,
2013-05-08 06:21:00,47.8,41.2,30.04,SE,135,0.0,0.0,78,0.00,,,0.00,WUHU216HW,2013-05-08 11:21:00,
2013-05-08 06:26:00,48.0,41.7,30.04,SE,135,0.0,0.0,79,0.00,,,0.00,WUHU216HW,2013-05-08 11:26:00,
2013-05-08 06:31:00,48.0,41.4,30.04,SE,135,0.0,0.0,78,0.00,,,0.00,WUHU216HW,2013-05-08 11:31:00,
2013-05-08 06:36:00,48.5,42.2,30.04,SE,135,0.0,0.0,79,0.00,,,0.00,WUHU216HW,2013-05-08 11:36:00,
2013-05-08 06:41:00,48.7,42.4,30.04,SE,135,0.0,0.0,79,0.00,,,0.00,WUHU216HW,2013-05-08 11:41:00,
2013-05-08 06:46:00,48.9,42.6,30.05,West,270,0.0,0.0,79,0.00,,,0.00,WUHU216HW,2013-05-08 11:46:00,
2013-05-08 06:51:00,49.2,42.9,30.04,West,270,0.0,0.0,79,0.00,,,0.00,WUHU216HW,2013-05-08 11:51:00,
2013-05-08 06:56:00,49.4,43.1,30.05,West,270,0.0,0.0,79,0.00,,,0.00,WUHU216HW,2013-05-08 11:56:00,
2013-05-08 07:01:00,49.4,43.1,30.05,West,270,0.0,0.0,79,0.00,,,0.00,WUHU216HW,2013-05-08 12:01:00,
2013-05-08 07:06:00,49.1,42.4,30.05,West,270,0.0,0.0,78,0.00,,,0.00,WUHU216HW,2013-05-08 12:06:00,
2013-05-08 07:11:00,48.5,41.2,30.05,South,172,4.8,6.4,76,0.00,,,0.00,WUHU216HW,2013-05-08 12:11:00,
2013-05-08 07:16:00,46.9,39.7,30.05,SSE,158,0.0,6.4,76,0.00,,,0.00,WUHU216HW,2013-05-08 12:16:00,
2013-05-08 07:21:00,47.3,41.4,30.05,SSE,158,0.0,3.3,80,0.00,,,0.00,WUHU216HW,2013-05-08 12:21:00,
2013-05-08 07:26:00,48.0,42.0,30.05,SSE,158,0.0,0.0,80,0.00,,,0.00,WUHU216HW,2013-05-08 12:26:00,
2013-05-08 07:31:00,48.3,42.4,30.05,SSE,158,0.0,0.0,80,0.00,,,0.00,WUHU216HW,2013-05-08 12:31:00,
2013-05-08 07:36:00,48.7,42.8,30.05,SSE,158,0.0,0.0,80,0.00,,,0.00,WUHU216HW,2013-05-08 12:36:00,
2013-05-08 07:41:00,49.2,42.9,30.06,SSE,158,0.0,0.0,79,0.00,,,0.00,WUHU216HW,2013-05-08 12:41:00,
2013-05-08 07:46:00,49.6,43.0,30.06,SSE,158,0.0,0.0,78,0.00,,,0.00,WUHU216HW,2013-05-08 12:46:00,
2013-05-08 07:51:00,50.5,43.5,30.06,SSE,158,0.0,0.0,79,0.00,,,0.00,WUHU216HW,2013-05-08 12:51:00,
2013-05-08 07:56:00,51.8,44.8,30.06,SE,135,0.0,0.0,77,0.00,,,0.00,WUHU216HW,2013-05-08 12:56:00,
2013-05-08 08:01:00,52.8,44.8,30.07,SSE,158,0.0,0.0,74,0.00,,,0.00,WUHU216HW,2013-05-08 13:01:00,
2013-05-08 08:06:00,54.5,45.3,30.07,North,0,0.0,0.0,73,0.00,,,0.00,WUHU216HW,2013-05-08 13:06:00,
2013-05-08 08:11:00,56.4,46.8,30.07,ESE,113,0.0,0.0,70,0.00,,,0.00,WUHU216HW,2013-05-08 13:11:00,
2013-05-08 08:16:00,57.9,47.3,30.07,ESE,113,0.0,0.0,68,0.00,,,0.00,WUHU216HW,2013-05-08 13:16:00,
2013-05-08 08:21:00,59.1,47.3,30.08,SE,135,0.0,0.0,65,0.00,,,0.00,WUHU216HW,2013-05-08 13:21:00,
2013-05-08 08:26:00,58.8,46.2,30.07,SSE,158,0.0,0.0,63,0.00,,,0.00,WUHU216HW,2013-05-08 13:26:00,
2013-05-08 08:31:00,57.5,45.0,30.07,SSE,158,7.3,7.3,63,0.00,,,0.00,WUHU216HW,2013-05-08 13:31:00,
2013-05-08 08:36:00,57.7,45.6,30.07,SSE,158,3.9,7.3,64,0.00,,,0.00,WUHU216HW,2013-05-08 13:36:00,
2013-05-08 08:41:00,58.8,46.2,30.07,SSE,158,0.0,3.9,63,0.00,,,0.00,WUHU216HW,2013-05-08 13:41:00,
2013-05-08 08:46:00,60.6,47.1,30.08,SSE,158,0.0,3.9,61,0.00,,,0.00,WUHU216HW,2013-05-08 13:46:00,
2013-05-08 08:51:00,61.1,47.4,30.08,SSE,158,0.0,0.0,60,0.00,,,0.00,WUHU216HW,2013-05-08 13:51:00,
2013-05-08 08:56:00,60.6,46.7,30.08,South,180,2.1,2.1,60,0.00,,,0.00,WUHU216HW,2013-05-08 13:56:00,
2013-05-08 09:01:00,59.7,46.2,30.08,South,180,0.0,2.1,61,0.00,,,0.00,WUHU216HW,2013-05-08 14:01:00,
2013-05-08 09:06:00,59.0,45.5,30.08,SSE,158,4.4,4.4,61,0.00,,,0.00,WUHU216HW,2013-05-08 14:06:00,
2013-05-08 09:11:00,58.8,45.3,30.08,SSE,158,0.0,4.4,61,0.00,,,0.00,WUHU216HW,2013-05-08 14:11:00,
2013-05-08 09:16:00,58.1,45.5,30.08,South,180,4.8,6.6,63,0.00,,,0.00,WUHU216HW,2013-05-08 14:16:00,
2013-05-08 09:21:00,60.2,47.2,30.09,SSE,158,0.0,6.6,62,0.00,,,0.00,WUHU216HW,2013-05-08 14:21:00,
2013-05-08 09:26:00,62.4,47.9,30.09,SSE,158,0.0,0.0,59,0.00,,,0.00,WUHU216HW,2013-05-08 14:26:00,
2013-05-08 09:31:00,63.8,48.2,30.09,SSE,158,3.6,3.6,57,0.00,,,0.00,WUHU216HW,2013-05-08 14:31:00,
2013-05-08 09:36:00,63.3,46.7,30.09,SE,135,2.5,3.6,55,0.00,,,0.00,WUHU216HW,2013-05-08 14:36:00,
2013-05-08 09:41:00,62.2,46.2,30.09,SSE,158,0.0,3.6,56,0.00,,,0.00,WUHU216HW,2013-05-08 14:41:00,
2013-05-08 09:46:00,62.6,47.1,30.09,SSE,158,0.0,2.5,57,0.00,,,0.00,WUHU216HW,2013-05-08 14:46:00,
2013-05-08 09:51:00,62.4,46.4,30.09,SSE,158,0.0,0.0,56,0.00,,,0.00,WUHU216HW,2013-05-08 14:51:00,
2013-05-08 09:56:00,62.4,47.2,30.09,SSE,158,6.1,6.1,57,0.00,,,0.00,WUHU216HW,2013-05-08 14:56:00,
2013-05-08 10:01:00,63.3,47.2,30.09,SSE,158,0.8,6.1,56,0.00,,,0.00,WUHU216HW,2013-05-08 15:01:00,
2013-05-08 10:06:00,63.5,47.4,30.09,SSE,158,0.0,0.8,56,0.00,,,0.00,WUHU216HW,2013-05-08 15:06:00,
2013-05-08 10:11:00,64.5,47.9,30.09,SSE,158,0.0,0.0,55,0.00,,,0.00,WUHU216HW,2013-05-08 15:11:00,
2013-05-08 10:16:00,65.4,48.3,30.09,SSE,158,0.0,0.0,54,0.00,,,0.00,WUHU216HW,2013-05-08 15:16:00,
2013-05-08 10:21:00,65.8,48.2,30.08,SSE,158,0.0,0.0,53,0.00,,,0.00,WUHU216HW,2013-05-08 15:21:00,
2013-05-08 10:26:00,65.4,47.8,30.09,South,180,0.0,0.0,53,0.00,,,0.00,WUHU216HW,2013-05-08 15:26:00,
2013-05-08 10:31:00,65.3,47.6,30.09,SSE,158,0.0,0.0,53,0.00,,,0.00,WUHU216HW,2013-05-08 15:31:00,
2013-05-08 10:36:00,65.3,48.1,30.09,SSE,158,0.0,0.0,54,0.00,,,0.00,WUHU216HW,2013-05-08 15:36:00,
2013-05-08 10:41:00,67.6,49.2,30.09,SE,135,0.0,0.0,53,0.00,,,0.00,WUHU216HW,2013-05-08 15:41:00,
2013-05-08 10:46:00,69.6,50.6,30.09,SE,135,0.0,0.0,51,0.00,,,0.00,WUHU216HW,2013-05-08 15:46:00,
2013-05-08 10:51:00,70.3,50.8,30.09,SE,135,0.0,0.0,50,0.00,,,0.00,WUHU216HW,2013-05-08 15:51:00,
2013-05-08 10:56:00,70.1,50.0,30.09,SE,135,0.0,0.0,49,0.00,,,0.00,WUHU216HW,2013-05-08 15:56:00,
2013-05-08 11:01:00,69.0,49.1,30.09,SSE,158,0.0,0.0,49,0.00,,,0.00,WUHU216HW,2013-05-08 16:01:00,
2013-05-08 11:06:00,68.1,48.3,30.09,SSE,158,0.0,0.0,49,0.00,,,0.00,WUHU216HW,2013-05-08 16:06:00,
2013-05-08 11:11:00,67.6,48.4,30.09,SE,135,0.0,0.0,50,0.00,,,0.00,WUHU216HW,2013-05-08 16:11:00,
2013-05-08 11:16:00,67.8,49.0,30.09,SSE,158,0.0,0.0,51,0.00,,,0.00,WUHU216HW,2013-05-08 16:16:00,
2013-05-08 11:21:00,69.6,50.6,30.09,SSE,158,0.0,0.0,51,0.00,,,0.00,WUHU216HW,2013-05-08 16:21:00,
2013-05-08 11:26:00,71.4,51.2,30.09,SSE,158,0.0,0.0,49,0.00,,,0.00,WUHU216HW,2013-05-08 16:26:00,
2013-05-08 11:31:00,75.0,53.3,30.09,SSW,203,1.9,1.9,47,0.00,,,0.00,WUHU216HW,2013-05-08 16:31:00,
2013-05-08 11:36:00,75.9,52.9,30.09,SW,225,0.0,1.9,45,0.00,,,0.00,WUHU216HW,2013-05-08 16:36:00,
2013-05-08 11:41:00,74.3,50.8,30.09,SSE,158,0.0,1.9,44,0.00,,,0.00,WUHU216HW,2013-05-08 16:41:00,
2013-05-08 11:46:00,72.6,49.9,30.10,SE,135,0.0,0.0,45,0.00,,,0.00,WUHU216HW,2013-05-08 16:46:00,
2013-05-08 11:51:00,71.7,49.7,30.09,SE,135,0.0,0.0,46,0.00,,,0.00,WUHU216HW,2013-05-08 16:51:00,
2013-05-08 11:56:00,71.4,50.0,30.09,SSW,203,0.0,0.0,47,0.00,,,0.00,WUHU216HW,2013-05-08 16:56:00,
2013-05-08 12:01:00,70.8,49.5,30.10,ESE,113,0.0,0.0,47,0.00,,,0.00,WUHU216HW,2013-05-08 17:01:00,
2013-05-08 12:06:00,70.3,48.4,30.09,SE,135,0.0,0.0,46,0.00,,,0.00,WUHU216HW,2013-05-08 17:06:00,
2013-05-08 12:11:00,68.1,47.7,30.09,SE,135,0.0,0.0,48,0.00,,,0.00,WUHU216HW,2013-05-08 17:11:00,
2013-05-08 12:16:00,67.6,47.8,30.10,SE,135,0.0,0.0,49,0.00,,,0.00,WUHU216HW,2013-05-08 17:16:00,
2013-05-08 12:21:00,67.2,47.4,30.10,ESE,113,0.0,0.0,49,0.00,,,0.00,WUHU216HW,2013-05-08 17:21:00,
2013-05-08 12:26:00,66.0,46.3,30.09,ESE,113,0.0,0.0,49,0.00,,,0.00,WUHU216HW,2013-05-08 17:26:00,
2013-05-08 12:31:00,64.4,45.3,30.10,East,90,5.0,5.0,50,0.00,,,0.00,WUHU216HW,2013-05-08 17:31:00,
2013-05-08 12:36:00,63.1,45.1,30.10,ESE,113,6.1,6.1,52,0.00,,,0.00,WUHU216HW,2013-05-08 17:36:00,
2013-05-08 12:41:00,61.1,44.8,30.10,East,90,8.6,8.6,55,0.00,,,0.00,WUHU216HW,2013-05-08 17:41:00,
2013-05-08 12:46:00,60.0,44.7,30.10,ESE,113,4.8,8.6,57,0.00,,,0.00,WUHU216HW,2013-05-08 17:46:00,
2013-05-08 12:51:00,59.0,44.2,30.10,ESE,113,0.0,8.6,58,0.00,,,0.00,WUHU216HW,2013-05-08 17:51:00,
2013-05-08 12:56:00,57.3,43.2,30.10,South,180,3.6,8.4,59,0.00,,,0.00,WUHU216HW,2013-05-08 17:56:00,
2013-05-08 13:01:00,56.1,42.8,30.11,SE,135,6.4,8.4,61,0.00,,,0.00,WUHU216HW,2013-05-08 18:01:00,
2013-05-08 13:06:00,55.2,43.6,30.11,SE,135,0.0,6.4,65,0.00,,,0.00,WUHU216HW,2013-05-08 18:06:00,
2013-05-08 13:11:00,55.2,44.4,30.10,SE,135,3.9,6.4,67,0.00,,,0.00,WUHU216HW,2013-05-08 18:11:00,
2013-05-08 13:16:00,55.5,45.1,30.10,ESE,113,0.0,4.8,68,0.00,,,0.00,WUHU216HW,2013-05-08 18:16:00,
2013-05-08 13:21:00,55.9,45.9,30.10,ESE,113,0.0,0.0,69,0.00,,,0.00,WUHU216HW,2013-05-08 18:21:00,
2013-05-08 13:26:00,57.5,46.7,30.10,ESE,113,0.0,0.0,69,0.00,,,0.00,WUHU216HW,2013-05-08 18:26:00,
2013-05-08 13:31:00,58.8,48.2,30.10,ESE,113,0.0,0.0,68,0.00,,,0.00,WUHU216HW,2013-05-08 18:31:00,
2013-05-08 13:36:00,60.6,49.2,30.10,ESE,113,0.0,0.0,66,0.00,,,0.00,WUHU216HW,2013-05-08 18:36:00,
2013-05-08 13:41:00,62.9,49.7,30.10,ESE,113,0.0,0.0,62,0.00,,,0.00,WUHU216HW,2013-05-08 18:41:00,
2013-05-08 13:46:00,64.0,49.8,30.10,ESE,113,0.0,0.0,60,0.00,,,0.00,WUHU216HW,2013-05-08 18:46:00,
2013-05-08 13:51:00,64.7,49.5,30.09,ESE,113,1.4,1.4,58,0.00,,,0.00,WUHU216HW,2013-05-08 18:51:00,
2013-05-08 13:56:00,64.5,48.9,30.09,East,90,2.1,2.1,57,0.00,,,0.00,WUHU216HW,2013-05-08 18:56:00,
2013-05-08 14:01:00,64.2,48.5,30.09,ESE,113,5.5,5.5,57,0.00,,,0.00,WUHU216HW,2013-05-08 19:01:00,
2013-05-08 14:06:00,61.7,47.2,30.09,East,90,6.4,6.4,59,0.00,,,0.00,WUHU216HW,2013-05-08 19:06:00,
2013-05-08 14:11:00,61.1,47.2,30.09,East,90,3.9,6.4,60,0.00,,,0.00,WUHU216HW,2013-05-08 19:11:00,
2013-05-08 14:16:00,61.3,47.8,30.09,East,90,5.8,6.4,61,0.00,,,0.00,WUHU216HW,2013-05-08 19:16:00,
2013-05-08 14:21:00,60.9,46.6,30.09,ESE,113,8.4,8.4,61,0.00,,,0.00,WUHU216HW,2013-05-08 19:21:00,
2013-05-08 14:26:00,58.6,46.4,30.09,ESE,113,0.0,8.4,64,0.00,,,0.00,WUHU216HW,2013-05-08 19:26:00,
2013-05-08 14:31:00,58.2,46.5,30.09,ESE,113,0.0,5.5,65,0.00,,,0.00,WUHU216HW,2013-05-08 19:31:00,
2013-05-08 14:36:00,58.6,47.2,30.09,ESE,113,0.0,0.0,66,0.00,,,0.00,WUHU216HW,2013-05-08 19:36:00,
2013-05-08 14:41:00,59.1,47.8,30.10,ENE,68,2.5,2.5,66,0.00,,,0.00,WUHU216HW,2013-05-08 19:41:00,
2013-05-08 14:46:00,60.0,48.2,30.09,ENE,68,0.0,3.6,65,0.00,,,0.00,WUHU216HW,2013-05-08 19:46:00,
2013-05-08 14:51:00,60.6,48.3,30.09,East,90,3.0,6.9,63,0.00,,,0.00,WUHU216HW,2013-05-08 19:51:00,
2013-05-08 14:56:00,61.3,48.2,30.10,East,90,6.7,8.6,62,0.00,,,0.00,WUHU216HW,2013-05-08 19:56:00,
2013-05-08 15:01:00,62.0,48.9,30.10,ENE,68,3.9,8.6,62,0.00,,,0.00,WUHU216HW,2013-05-08 20:01:00,
2013-05-08 15:06:00,62.4,47.9,30.10,ENE,68,7.3,7.3,59,0.00,,,0.00,WUHU216HW,2013-05-08 20:06:00,
2013-05-08 15:11:00,62.4,47.9,30.10,East,80,6.6,8.4,59,0.00,,,0.00,WUHU216HW,2013-05-08 20:11:00,
2013-05-08 15:16:00,62.7,47.7,30.09,ENE,68,3.9,8.4,58,0.00,,,0.00,WUHU216HW,2013-05-08 20:16:00,
2013-05-08 15:21:00,63.3,48.0,30.09,East,90,5.5,8.0,58,0.00,,,0.00,WUHU216HW,2013-05-08 20:21:00,
2013-05-08 15:26:00,63.6,48.0,30.09,East,90,11.4,11.4,57,0.00,,,0.00,WUHU216HW,2013-05-08 20:26:00,
2013-05-08 15:31:00,63.6,48.5,30.09,East,90,6.9,11.4,58,0.00,,,0.00,WUHU216HW,2013-05-08 20:31:00,
2013-05-08 15:36:00,63.5,47.9,30.09,East,90,9.8,11.4,57,0.00,,,0.00,WUHU216HW,2013-05-08 20:36:00,
2013-05-08 15:41:00,63.1,48.0,30.09,East,90,11.4,11.4,58,0.00,,,0.00,WUHU216HW,2013-05-08 20:41:00,
2013-05-08 15:46:00,63.1,48.5,30.09,East,90,7.8,11.4,59,0.00,,,0.00,WUHU216HW,2013-05-08 20:46:00,
2013-05-08 15:51:00,62.7,48.2,30.09,East,90,7.8,11.4,59,0.00,,,0.00,WUHU216HW,2013-05-08 20:51:00,
2013-05-08 15:56:00,62.9,48.3,30.09,ENE,68,5.5,8.0,59,0.00,,,0.00,WUHU216HW,2013-05-08 20:56:00,
2013-05-08 16:01:00,62.9,48.3,30.09,ENE,68,3.3,7.5,59,0.00,,,0.00,WUHU216HW,2013-05-08 21:01:00,
2013-05-08 16:06:00,63.3,48.7,30.09,NE,45,5.8,6.9,59,0.00,,,0.00,WUHU216HW,2013-05-08 21:06:00,
2013-05-08 16:11:00,63.8,49.2,30.09,East,90,11.1,11.1,59,0.00,,,0.00,WUHU216HW,2013-05-08 21:11:00,
2013-05-08 16:16:00,63.6,48.5,30.09,ENE,68,7.8,11.1,58,0.00,,,0.00,WUHU216HW,2013-05-08 21:16:00,
2013-05-08 16:21:00,63.5,48.8,30.09,ENE,68,5.8,11.1,59,0.00,,,0.00,WUHU216HW,2013-05-08 21:21:00,
2013-05-08 16:26:00,63.6,49.9,30.08,ENE,68,2.1,5.8,61,0.00,,,0.00,WUHU216HW,2013-05-08 21:26:00,
2013-05-08 16:31:00,64.0,50.2,30.08,ENE,78,3.8,5.8,61,0.00,,,0.00,WUHU216HW,2013-05-08 21:31:00,
2013-05-08 16:35:00,64.2,49.5,30.08,East,90,11.4,11.4,59,0.00,,,0.00,WUHU216HW,2013-05-08 21:35:00,
2013-05-08 16:40:00,64.7,50.0,30.08,ENE,68,8.9,11.4,59,0.00,,,0.00,WUHU216HW,2013-05-08 21:40:00,
2013-05-08 16:45:00,65.3,50.1,30.09,East,90,8.6,8.9,58,0.00,,,0.00,WUHU216HW,2013-05-08 21:45:00,
2013-05-08 16:50:00,65.4,50.2,30.09,ENE,68,2.8,8.6,58,0.00,,,0.00,WUHU216HW,2013-05-08 21:50:00,
2013-05-08 16:55:00,65.1,49.4,30.08,East,90,6.9,8.6,57,0.00,,,0.00,WUHU216HW,2013-05-08 21:55:00,
2013-05-08 17:00:00,64.2,48.5,30.08,ENE,68,5.3,10.9,57,0.00,,,0.00,WUHU216HW,2013-05-08 22:00:00,
2013-05-08 17:05:00,64.2,49.0,30.08,East,90,5.3,10.9,58,0.00,,,0.00,WUHU216HW,2013-05-08 22:05:00,
2013-05-08 17:10:00,63.8,48.2,30.09,East,90,8.9,15.6,57,0.00,,,0.00,WUHU216HW,2013-05-08 22:10:00,
2013-05-08 17:15:00,63.1,49.0,30.09,East,84,8.8,15.6,60,0.00,,,0.00,WUHU216HW,2013-05-08 22:15:00,
2013-05-08 17:20:00,63.6,49.9,30.09,ENE,68,8.0,12.8,61,0.00,,,0.00,WUHU216HW,2013-05-08 22:20:00,
2013-05-08 17:25:00,64.2,50.4,30.09,NE,45,8.0,8.9,61,0.00,,,0.00,WUHU216HW,2013-05-08 22:25:00,
2013-05-08 17:30:00,63.5,49.3,30.09,East,82,8.5,11.6,60,0.00,,,0.00,WUHU216HW,2013-05-08 22:30:00,
2013-05-08 17:35:00,63.1,49.0,30.09,ENE,68,6.4,12.0,60,0.00,,,0.00,WUHU216HW,2013-05-08 22:35:00,
2013-05-08 17:40:00,63.3,49.2,30.09,East,90,10.6,12.0,60,0.00,,,0.00,WUHU216HW,2013-05-08 22:40:00,
2013-05-08 17:45:00,63.3,49.2,30.09,East,90,8.4,10.6,60,0.00,,,0.00,WUHU216HW,2013-05-08 22:45:00,
2013-05-08 17:50:00,63.6,49.0,30.09,East,90,11.4,11.4,59,0.00,,,0.00,WUHU216HW,2013-05-08 22:50:00,
2013-05-08 17:55:00,64.2,49.5,30.09,ENE,68,4.4,11.4,59,0.00,,,0.00,WUHU216HW,2013-05-08 22:55:00,
2013-05-08 18:00:00,63.1,49.0,30.09,East,90,7.5,8.0,60,0.00,,,0.00,WUHU216HW,2013-05-08 23:00:00,
2013-05-08 18:05:00,62.2,49.0,30.09,ENE,68,5.8,7.5,62,0.00,,,0.00,WUHU216HW,2013-05-08 23:05:00,
2013-05-08 18:10:00,61.3,48.6,30.09,ENE,68,6.1,7.5,63,0.00,,,0.00,WUHU216HW,2013-05-08 23:10:00,
2013-05-08 18:15:00,61.3,49.4,30.09,ENE,68,2.8,7.8,65,0.00,,,0.00,WUHU216HW,2013-05-08 23:15:00,
2013-05-08 18:20:00,61.7,49.8,30.09,ENE,68,1.9,7.8,65,0.00,,,0.00,WUHU216HW,2013-05-08 23:20:00,
2013-05-08 18:25:00,63.3,50.8,30.09,ENE,68,3.3,3.3,64,0.00,,,0.00,WUHU216HW,2013-05-08 23:25:00,
2013-05-08 18:30:00,66.0,51.8,30.09,East,90,8.4,8.4,60,0.00,,,0.00,WUHU216HW,2013-05-08 23:30:00,
2013-05-08 18:35:00,66.3,50.6,30.09,East,90,8.0,8.4,57,0.00,,,0.00,WUHU216HW,2013-05-08 23:35:00,
2013-05-08 18:40:00,64.5,49.3,30.09,East,90,5.8,8.9,58,0.00,,,0.00,WUHU216HW,2013-05-08 23:40:00,
2013-05-08 18:45:00,62.9,49.2,30.09,East,90,5.5,8.9,61,0.00,,,0.00,WUHU216HW,2013-05-08 23:45:00,
2013-05-08 18:50:00,62.4,49.6,30.09,East,90,5.0,5.5,63,0.00,,,0.00,WUHU216HW,2013-05-08 23:50:00,
2013-05-08 18:55:00,62.4,49.2,30.09,East,90,6.6,6.6,62,0.00,,,0.00,WUHU216HW,2013-05-08 23:55:00,
2013-05-08 19:00:00,61.1,48.5,30.09,East,90,6.4,6.6,63,0.00,,,0.00,WUHU216HW,2013-05-09 00:00:00,
2013-05-08 19:05:00,60.4,48.2,30.09,East,90,6.4,6.4,64,0.00,,,0.00,WUHU216HW,2013-05-09 00:05:00,
2013-05-08 19:10:00,59.7,47.9,30.09,East,90,5.0,6.4,65,0.00,,,0.00,WUHU216HW,2013-05-09 00:10:00,
2013-05-08 19:15:00,59.5,47.7,30.09,East,90,0.0,5.8,65,0.00,,,0.00,WUHU216HW,2013-05-09 00:15:00,
2013-05-08 19:20:00,59.5,48.1,30.09,East,90,0.0,0.0,66,0.00,,,0.00,WUHU216HW,2013-05-09 00:20:00,
2013-05-08 19:25:00,59.9,48.5,30.10,ENE,68,0.0,0.0,66,0.00,,,0.00,WUHU216HW,2013-05-09 00:25:00,
2013-05-08 19:30:00,61.5,50.0,30.10,East,85,3.4,5.3,66,0.00,,,0.00,WUHU216HW,2013-05-09 00:30:00,
2013-05-08 19:35:00,61.5,50.0,30.10,East,90,0.0,6.1,66,0.00,,,0.00,WUHU216HW,2013-05-09 00:35:00,
2013-05-08 19:40:00,62.9,50.5,30.10,East,90,5.5,6.1,64,0.00,,,0.00,WUHU216HW,2013-05-09 00:40:00,
2013-05-08 19:45:00,63.6,50.7,30.10,East,90,2.5,5.5,63,0.00,,,0.00,WUHU216HW,2013-05-09 00:45:00,
2013-05-08 19:50:00,64.0,50.7,30.10,East,90,0.0,2.5,62,0.00,,,0.00,WUHU216HW,2013-05-09 00:50:00,
2013-05-08 19:55:00,63.6,49.9,30.11,East,90,0.0,2.5,61,0.00,,,0.00,WUHU216HW,2013-05-09 00:55:00,
2013-05-08 20:00:00,63.1,49.8,30.11,East,90,0.0,0.0,62,0.00,,,0.00,WUHU216HW,2013-05-09 01:00:00,
2013-05-08 20:05:00,62.6,49.8,30.11,East,90,0.0,0.0,63,0.00,,,0.00,WUHU216HW,2013-05-09 01:05:00,
2013-05-08 20:10:00,61.7,49.3,30.11,ENE,68,0.0,0.0,65,0.00,,,0.00,WUHU216HW,2013-05-09 01:10:00,
2013-05-08 20:15:00,60.6,49.2,30.11,ENE,68,0.0,0.0,66,0.00,,,0.00,WUHU216HW,2013-05-09 01:15:00,
2013-05-08 20:20:00,59.5,48.1,30.11,ENE,68,0.0,0.0,66,0.00,,,0.00,WUHU216HW,2013-05-09 01:20:00,
2013-05-08 20:25:00,58.1,47.8,30.11,ENE,68,0.0,0.0,68,0.00,,,0.00,WUHU216HW,2013-05-09 01:25:00,
2013-05-08 20:30:00,57.0,46.9,30.11,ENE,68,0.0,0.0,69,0.00,,,0.00,WUHU216HW,2013-05-09 01:30:00,
2013-05-08 20:35:00,56.3,46.6,30.11,ENE,68,0.0,0.0,70,0.00,,,0.00,WUHU216HW,2013-05-09 01:35:00,
2013-05-08 20:40:00,55.5,46.3,30.11,ENE,68,0.0,0.0,70,0.00,,,0.00,WUHU216HW,2013-05-09 01:40:00,
2013-05-08 20:45:00,54.6,45.8,30.11,ENE,68,0.0,0.0,72,0.00,,,0.00,WUHU216HW,2013-05-09 01:45:00,
2013-05-08 20:50:00,54.1,45.6,30.11,ENE,68,0.0,0.0,73,0.00,,,0.00,WUHU216HW,2013-05-09 01:50:00,
2013-05-08 20:55:00,53.6,45.3,30.11,ENE,68,0.0,0.0,74,0.00,,,0.00,WUHU216HW,2013-05-09 01:55:00,
2013-05-08 21:00:00,52.8,44.8,30.12,ENE,68,0.0,0.0,74,0.00,,,0.00,WUHU216HW,2013-05-09 02:00:00,
2013-05-08 21:05:00,52.8,45.1,30.12,ENE,68,0.0,0.0,75,0.00,,,0.00,WUHU216HW,2013-05-09 02:05:00,
2013-05-08 21:10:00,52.5,45.1,30.12,ENE,68,0.0,0.0,76,0.00,,,0.00,WUHU216HW,2013-05-09 02:10:00,
2013-05-08 21:15:00,52.5,45.5,30.12,ENE,68,0.0,0.0,77,0.00,,,0.00,WUHU216HW,2013-05-09 02:15:00,
2013-05-08 21:20:00,52.3,45.6,30.12,ENE,68,0.0,0.0,78,0.00,,,0.00,WUHU216HW,2013-05-09 02:20:00,
2013-05-08 21:25:00,52.5,45.8,30.13,ENE,68,0.0,0.0,78,0.00,,,0.00,WUHU216HW,2013-05-09 02:25:00,
2013-05-08 21:30:00,52.5,45.8,30.12,ENE,68,0.0,0.0,78,0.00,,,0.00,WUHU216HW,2013-05-09 02:30:00,
2013-05-08 21:35:00,52.3,46.0,30.12,ESE,113,0.0,0.0,79,0.00,,,0.00,WUHU216HW,2013-05-09 02:35:00,
2013-05-08 21:40:00,52.3,46.0,30.12,ESE,113,0.0,0.0,79,0.00,,,0.00,WUHU216HW,2013-05-09 02:40:00,
2013-05-08 21:45:00,52.3,46.0,30.13,ESE,113,0.0,0.0,79,0.00,,,0.00,WUHU216HW,2013-05-09 02:45:00,
2013-05-08 21:50:00,52.3,46.0,30.13,ESE,113,0.0,0.0,79,0.00,,,0.00,WUHU216HW,2013-05-09 02:50:00,
2013-05-08 21:55:00,52.1,46.0,30.12,ESE,113,0.0,0.0,79,0.00,,,0.00,WUHU216HW,2013-05-09 02:55:00,
2013-05-08 22:00:00,51.9,45.8,30.12,ESE,113,0.0,0.0,79,0.00,,,0.00,WUHU216HW,2013-05-09 03:00:00,
2013-05-08 22:05:00,51.9,45.6,30.13,ESE,113,0.0,0.0,79,0.00,,,0.00,WUHU216HW,2013-05-09 03:05:00,
2013-05-08 22:10:00,51.6,45.3,30.13,ESE,113,0.0,0.0,79,0.00,,,0.00,WUHU216HW,2013-05-09 03:10:00,
2013-05-08 22:15:00,51.6,45.6,30.13,ESE,113,0.0,0.0,80,0.00,,,0.00,WUHU216HW,2013-05-09 03:15:00,
2013-05-08 22:20:00,51.6,45.6,30.13,ESE,113,0.0,0.0,80,0.00,,,0.00,WUHU216HW,2013-05-09 03:20:00,
2013-05-08 22:25:00,51.6,45.5,30.13,ESE,113,0.0,0.0,80,0.00,,,0.00,WUHU216HW,2013-05-09 03:25:00,
2013-05-08 22:30:00,51.6,45.9,30.13,ESE,113,0.0,0.0,81,0.00,,,0.00,WUHU216HW,2013-05-09 03:30:00,
2013-05-08 22:35:00,51.6,45.9,30.13,ESE,113,0.0,0.0,81,0.00,,,0.00,WUHU216HW,2013-05-09 03:35:00,
2013-05-08 22:40:00,51.6,45.9,30.14,ESE,113,0.0,0.0,81,0.00,,,0.00,WUHU216HW,2013-05-09 03:40:00,
2013-05-08 22:45:00,51.6,46.2,30.14,ESE,113,0.0,0.0,82,0.00,,,0.00,WUHU216HW,2013-05-09 03:45:00,
2013-05-08 22:50:00,51.8,46.4,30.14,East,90,0.0,0.0,82,0.00,,,0.00,WUHU216HW,2013-05-09 03:50:00,
2013-05-08 22:55:00,51.9,46.6,30.14,NNE,23,0.0,0.0,82,0.00,,,0.00,WUHU216HW,2013-05-09 03:55:00,
2013-05-08 23:00:00,52.1,47.1,30.14,North,0,8.6,8.6,83,0.00,,,0.00,WUHU216HW,2013-05-09 04:00:00,
2013-05-08 23:01:00,52.1,47.1,30.14,North,0,8.6,8.6,83,0.00,,,0.00,WUHU216HW,2013-05-09 04:01:00,
2013-05-08 23:06:00,53.0,48.3,30.13,North,0,7.8,8.6,84,0.00,,,0.00,WUHU216HW,2013-05-09 04:06:00,
2013-05-08 23:11:00,53.6,48.8,30.14,NNE,23,10.3,10.3,84,0.00,,,0.00,WUHU216HW,2013-05-09 04:11:00,
2013-05-08 23:16:00,53.7,48.4,30.13,NNE,23,10.6,10.6,82,0.00,,,0.00,WUHU216HW,2013-05-09 04:16:00,
2013-05-08 23:21:00,54.3,47.5,30.13,North,0,18.1,18.1,78,0.00,,,0.00,WUHU216HW,2013-05-09 04:21:00,
2013-05-08 23:26:00,53.9,44.0,30.13,North,0,19.0,19.0,69,0.00,,,0.00,WUHU216HW,2013-05-09 04:26:00,
2013-05-08 23:31:00,53.4,42.6,30.13,NNE,23,17.5,19.0,67,0.00,,,0.00,WUHU216HW,2013-05-09 04:31:00,
2013-05-08 23:36:00,52.8,42.1,30.13,NNE,23,13.5,17.5,67,0.00,,,0.00,WUHU216HW,2013-05-09 04:36:00,
2013-05-08 23:41:00,52.7,41.2,30.13,North,0,20.9,20.9,65,0.00,,,0.00,WUHU216HW,2013-05-09 04:41:00,
2013-05-08 23:46:00,52.3,40.4,30.13,North,0,11.1,20.9,64,0.00,,,0.00,WUHU216HW,2013-05-09 04:46:00,
2013-05-08 23:51:00,52.1,41.1,30.13,NNE,23,17.0,20.6,66,0.00,,,0.00,WUHU216HW,2013-05-09 04:51:00,
2013-05-08 23:56:00,51.8,40.7,30.14,NNE,23,10.9,19.0,66,0.00,,,0.00,WUHU216HW,2013-05-09 04:56:00,